Osceola Municipal, IA

7:23 AM CST on December 12, 2017 (GMT -0600)
Osceola Municipal

Weather History for KI75 - April, 2013

Change the Weather History Date:

Sunday, April 28, 2013

  Actual Average (KCNC) Record (KCNC)
Temperature  
Mean Temperature 57 °F -  
Max Temperature 73 °F 68 °F 90 °F (1970)
Min Temperature 41 °F 41 °F 28 °F (1973)
Degree Days  
Heating Degree Days 8    
Growing Degree Days 7 (Base 50)    
Moisture  
Dew Point 46 °F    
Average Humidity 68    
Maximum Humidity 96    
Minimum Humidity 39    
Precipitation  
Precipitation 0.00 in - - ()
Sea Level Pressure  
Sea Level Pressure 29.88 in    
Wind  
Wind Speed 7 mph (SSW)    
Max Wind Speed 15 mph    
Max Gust Speed 21 mph    
Visibility 8 miles    
Events      
Averages and records for this station are not official NWS values.
T = Trace of Precipitation, MM = Missing Value Source: NWS Daily Summary

Daily Weather History Graph

Daily Weather History Graph

Search for Another Location

Airport or City:

Trip Planner

Search our weather history database for the weather conditions in past years. The results will help you decide how hot, cold, wet, or windy it might be!

Date:

Astronomy

Apr. 28, 2013 Rise Set
Actual Time 6:16 AM CDT 8:08 PM CDT
Civil Twilight 5:46 AM CDT 8:38 PM CDT
Nautical Twilight 5:10 AM CDT 9:14 PM CDT
Astronomical Twilight 4:31 AM CDT 9:53 PM CDT
Moon 11:40 PM CDT (4/28) 8:32 AM CDT (4/28)
Length of Visible Light 14h 51m
Length of Day
13h 52m
Waning Gibbous, 88% of the Moon is Illuminated
Apr 28
Waning Gibbous
May 2
Last Quarter
May 9
New
May 17
First Quarter
May 24
Full

Hourly Weather History & Observations

Time (CDT) Temp. Windchill Dew Point Humidity Pressure Visibility Wind Dir Wind Speed Gust Speed Precip Events Conditions
12:15 AM 44.8 °F 42.4 °F 42.3 °F 91% 30.00 in 10.0 mi SSE 4.6 mph - N/A   Clear
12:35 AM 45.5 °F 43.2 °F 42.8 °F 90% 30.00 in 10.0 mi South 4.6 mph - N/A   Clear
12:55 AM 45.5 °F 43.2 °F 43.2 °F 92% 30.00 in 10.0 mi SW 4.6 mph - N/A   Clear
1:15 AM 43.7 °F 40.3 °F 41.5 °F 92% 30.00 in 7.0 mi WSW 5.8 mph - N/A   Clear
1:35 AM 44.6 °F 43.1 °F 43.0 °F 94% 29.99 in 7.0 mi SW 3.5 mph - N/A   Clear
1:55 AM 43.9 °F 42.3 °F 42.4 °F 95% 29.98 in 7.0 mi SW 3.5 mph - N/A   Clear
2:15 AM 41.9 °F 39.0 °F 40.3 °F 94% 29.96 in 4.0 mi South 4.6 mph - N/A   Clear
2:35 AM 43.0 °F 40.3 °F 41.9 °F 96% 29.95 in 5.0 mi South 4.6 mph - N/A   Clear
2:55 AM 41.7 °F 38.0 °F 40.1 °F 94% 29.94 in 4.0 mi SSE 5.8 mph - N/A   Clear
3:15 AM 42.1 °F 39.2 °F 41.0 °F 96% 29.94 in 4.0 mi SSE 4.6 mph - N/A   Clear
3:35 AM 42.3 °F 37.3 °F 41.0 °F 95% 29.96 in 4.0 mi West 8.1 mph - N/A   Clear
3:55 AM 42.8 °F 38.0 °F 41.5 °F 95% 29.96 in 5.0 mi West 8.1 mph - N/A   Clear
4:15 AM 42.8 °F 38.6 °F 41.4 °F 95% 29.96 in 7.0 mi West 6.9 mph - N/A   Clear
4:35 AM 42.6 °F 39.9 °F 41.2 °F 95% 29.95 in 7.0 mi WSW 4.6 mph - N/A   Clear
4:55 AM 42.8 °F 39.3 °F 41.4 °F 95% 29.95 in 7.0 mi WSW 5.8 mph - N/A   Clear
5:15 AM 41.4 °F 37.6 °F 40.1 °F 95% 29.95 in 4.0 mi WSW 5.8 mph - N/A   Clear
5:35 AM 41.5 °F 37.8 °F 40.3 °F 95% 29.95 in 7.0 mi West 5.8 mph - N/A   Clear
5:55 AM 42.1 °F 38.4 °F 40.8 °F 95% 29.95 in 7.0 mi West 5.8 mph - N/A   Clear
6:15 AM 41.4 °F 37.6 °F 40.1 °F 95% 29.95 in 7.0 mi WSW 5.8 mph - N/A   Clear
6:35 AM 41.7 °F 38.8 °F 40.5 °F 95% 29.95 in 5.0 mi WSW 4.6 mph - N/A   Clear
6:55 AM 42.6 °F 39.9 °F 41.4 °F 95% 29.95 in 5.0 mi WSW 4.6 mph - N/A   Clear
7:15 AM 44.8 °F 43.3 °F 43.5 °F 95% 29.95 in 7.0 mi WSW 3.5 mph - N/A   Clear
7:35 AM 46.6 °F - 44.8 °F 93% 29.95 in 7.0 mi SW 3.5 mph - N/A   Clear
8:15 AM 51.6 °F - 47.5 °F 86% 29.94 in 10.0 mi WSW 6.9 mph - N/A   Clear
8:35 AM 53.1 °F - 47.5 °F 81% 29.94 in 10.0 mi WSW 5.8 mph - N/A   Clear
8:55 AM 55.0 °F - 48.0 °F 77% 29.94 in 10.0 mi SW 6.9 mph - N/A   Clear
9:15 AM 56.3 °F - 47.7 °F 73% 29.94 in 10.0 mi SW 6.9 mph - N/A   Clear
9:35 AM 57.7 °F - 47.5 °F 69% 29.93 in 10.0 mi SW 5.8 mph - N/A   Clear
9:55 AM 59.5 °F - 48.0 °F 66% 29.93 in 10.0 mi SW 8.1 mph - N/A   Clear
10:15 AM 60.4 °F - 48.0 °F 64% 29.93 in 10.0 mi SW 8.1 mph - N/A   Clear
10:35 AM 61.0 °F - 47.5 °F 61% 29.93 in 5.0 mi SW 9.2 mph - N/A   Haze
10:55 AM 62.6 °F - 48.4 °F 60% 29.92 in 7.0 mi SSW 8.1 mph - N/A   Clear
11:15 AM 63.7 °F - 47.3 °F 55% 29.92 in 10.0 mi South 5.8 mph - N/A   Clear
11:35 AM 64.9 °F - 48.9 °F 56% 29.91 in 7.0 mi SSW 6.9 mph - N/A   Clear
11:55 AM 65.5 °F - 48.2 °F 54% 29.91 in 7.0 mi SSW 12.7 mph - N/A   Clear
12:15 PM 66.6 °F - 48.0 °F 51% 29.90 in 10.0 mi SSW 9.2 mph - N/A   Clear
12:35 PM 67.5 °F - 48.2 °F 50% 29.89 in 10.0 mi SSW 5.8 mph 9.2 mph N/A   Clear
12:55 PM 68.2 °F - 47.1 °F 47% 29.89 in 7.0 mi SSW 9.2 mph - N/A   Clear
1:15 PM 68.7 °F - 46.0 °F 44% 29.88 in 7.0 mi SSW 10.4 mph - N/A   Clear
1:35 PM 69.6 °F - 46.2 °F 43% 29.87 in 7.0 mi South 10.4 mph 17.3 mph N/A   Clear
1:55 PM 70.5 °F - 46.2 °F 42% 29.87 in 7.0 mi SSW 13.8 mph 18.4 mph N/A   Clear
2:15 PM 70.7 °F - 46.9 °F 43% 29.86 in 10.0 mi South 13.8 mph 18.4 mph N/A   Clear
2:35 PM 71.2 °F - 45.9 °F 40% 29.86 in 10.0 mi SSE 12.7 mph 18.4 mph N/A   Clear
2:55 PM 72.0 °F - 46.4 °F 40% 29.85 in 10.0 mi SSW 15.0 mph - N/A   Clear
3:15 PM 71.8 °F - 46.4 °F 40% 29.84 in 7.0 mi South 12.7 mph 17.3 mph N/A   Clear
3:35 PM 72.7 °F - 46.4 °F 39% 29.83 in 7.0 mi SSE 12.7 mph - N/A   Clear
3:55 PM 72.3 °F - 47.1 °F 41% 29.83 in 7.0 mi South 13.8 mph - N/A   Clear
4:15 PM 72.3 °F - 47.3 °F 41% 29.82 in 7.0 mi South 15.0 mph 20.7 mph N/A   Clear
4:35 PM 72.7 °F - 47.1 °F 40% 29.81 in 7.0 mi South 13.8 mph 18.4 mph N/A   Clear
4:55 PM 73.4 °F - 46.9 °F 39% 29.80 in 7.0 mi South 12.7 mph - N/A   Clear
5:15 PM 73.4 °F - 47.3 °F 39% 29.80 in 10.0 mi SSE 13.8 mph 17.3 mph N/A   Clear
5:35 PM 72.9 °F - 46.6 °F 39% 29.79 in 10.0 mi South 13.8 mph - N/A   Clear
5:55 PM 73.0 °F - 47.1 °F 40% 29.79 in 7.0 mi South 13.8 mph 18.4 mph N/A   Clear
6:15 PM 72.5 °F - 47.3 °F 41% 29.79 in 10.0 mi South 11.5 mph - N/A   Clear
6:35 PM 72.0 °F - 47.3 °F 41% 29.79 in 10.0 mi South 12.7 mph - N/A   Unknown
6:55 PM 71.2 °F - 47.1 °F 42% 29.78 in 10.0 mi South 12.7 mph - N/A   Clear
7:15 PM 70.2 °F - 48.2 °F 46% 29.78 in 10.0 mi South 9.2 mph - N/A   Clear
7:35 PM 68.9 °F - 49.1 °F 49% 29.78 in 7.0 mi SSE 11.5 mph - N/A   Clear
7:55 PM 66.4 °F - 49.1 °F 54% 29.79 in 7.0 mi SSE 9.2 mph - N/A   Clear
8:15 PM 64.8 °F - 49.1 °F 57% 29.79 in 10.0 mi SSE 8.1 mph - N/A   Clear
8:35 PM 62.6 °F - 48.7 °F 60% 29.79 in 10.0 mi SSE 8.1 mph - N/A   Clear
8:55 PM 62.4 °F - 48.4 °F 60% 29.80 in 10.0 mi SSE 6.9 mph - N/A   Clear
9:15 PM 61.9 °F - 49.3 °F 63% 29.81 in 10.0 mi SSE 9.2 mph - N/A   Clear
9:35 PM 61.2 °F - 49.8 °F 66% 29.81 in 10.0 mi SSE 10.4 mph - N/A   Clear
9:55 PM 60.8 °F - 49.6 °F 67% 29.81 in 10.0 mi SSE 8.1 mph - N/A   Clear
10:15 PM 59.9 °F - 50.0 °F 70% 29.81 in 10.0 mi SSE 10.4 mph - N/A   Clear
10:35 PM 59.9 °F - 50.2 °F 70% 29.81 in 10.0 mi SSE 9.2 mph 16.1 mph N/A   Clear
10:55 PM 59.5 °F - 50.2 °F 71% 29.81 in 10.0 mi SSE 9.2 mph - N/A   Clear
11:15 PM 59.4 °F - 50.2 °F 72% 29.80 in 10.0 mi SSE 11.5 mph - N/A   Clear
11:35 PM 59.2 °F - 50.0 °F 72% 29.80 in 10.0 mi South 10.4 mph - N/A   Clear
11:55 PM 59.0 °F - 50.0 °F 72% 29.81 in 10.0 mi South 10.4 mph - N/A   Clear